Flag for China Weather past 2 weeks in Changsha, Hunan, China

Now
77 °F

Passing clouds.


Feels Like: 78 °F
Forecast: 56 / 84 °F
Wind: 3 mph from West

Location: Changsha

Current Time: Oct 23, 2014 at 5:30:37 PM

Latest Report: Oct 23, 2014 at 5:00 PM


Visibility: N/A

Pressure: 30.01 "Hg

Humidity: 34%

Dew point: 46 °F

Location of ChangshaLocation

Historic Weather in Changsha — Graph

°F

Changsha temperature yesterday

Maximum temperature yesterday: 79 °F (at 2:00 PM)
Minimum temperature yesterday: 55 °F (at 6:00 AM)
Average temperature yesterday: 67 °F

Past Weeks' High & Low Weather Summary

 TemperatureHumidityPressure
High91 °F (Oct 20, 3:00 PM)94% (Oct 9, 6:00 AM)30.30 "Hg (Oct 9, 6:00 AM)
Low54 °F (Oct 23, 7:00 AM)27% (Oct 18, 3:00 PM)29.80 "Hg (Oct 20, 3:00 PM)
Average69 °F65%30.07 "Hg
* Reported Oct 8 4:00 PM — Oct 23 4:00 PM, Changsha, Weather by CustomWeather, © 2014

Note: Actual official high and low records may vary slightly from our data, if they occured in-between our weather recording intervals... More about our weather records

Advertising

Changsha weather history for previous 24 hours

 ConditionsComfort  
Time TempWeatherWind HumidityBarometerVisibility
4:00 PM
Oct 23
79 °FPassing clouds.1 mph34%30.01 "HgN/A
3:00 PM79 °FScattered clouds.1 mph34%30.04 "HgN/A
2:00 PM75 °FScattered clouds.1 mph41%30.07 "HgN/A
1:00 PM79 °FScattered clouds.3 mph39%30.07 "HgN/A
12:00 PM77 °FScattered clouds.3 mph42%30.09 "HgN/A
11:00 AM75 °FSunny.1 mph47%30.12 "Hg10 mi
10:00 AM70 °FSunny.1 mph60%30.15 "Hg10 mi
9:00 AM64 °FClear.3 mph68%30.15 "Hg4 mi
8:00 AM61 °FFog.No wind88%30.15 "Hg3 mi
7:00 AM54 °FFog.1 mph94%30.15 "Hg2 mi
6:00 AM55 °FFog.1 mph88%30.12 "Hg2 mi
5:00 AM55 °FFog.1 mph88%30.12 "Hg2 mi
4:00 AM55 °FFog.1 mph94%30.12 "Hg2 mi
3:00 AM57 °FFog.3 mph94%30.12 "Hg2 mi
2:00 AM57 °FFog.1 mph88%30.12 "Hg2 mi
1:00 AM61 °FFog.3 mph83%30.12 "Hg2 mi
12:00 AM61 °FFog.1 mph83%30.12 "Hg3 mi
11:00 PM
Oct 22
63 °FFog.6 mph73%30.15 "Hg3 mi
10:00 PM64 °FFog.3 mph73%30.15 "Hg3 mi
9:00 PM68 °FClear.3 mph64%30.12 "Hg4 mi
8:00 PM68 °FClear.8 mph64%30.12 "Hg4 mi
7:00 PM70 °FClear.8 mph57%30.12 "Hg5 mi
6:00 PM72 °FClear.8 mph53%30.09 "Hg10 mi
5:00 PM77 °FPassing clouds.3 mph39%30.09 "HgN/A
Weather by CustomWeather, © 2014

See weather overviewHow to use our weather pages